Location: Medlow Airstrip Trail, Medlow Bath NSW 2780, Australia
(33.6682°S, 150.3233°E)
Time: 01:27:18
(UTC+11:00)

OTV 5 (USA 277) - Visible Passes

Search period start: 22 March 2019 00:00
Search period end: 01 April 2019 00:00
Orbit: 315 x 320 km, 54.5° (Epoch: 14 March)

Date Brightness Start Highest point End Pass type
(mag) Time Alt. Az. Time Alt. Az. Time Alt. Az.
22 Mar ? 06:12:50 17° WSW 06:14:28 34° NW 06:16:59 10° NNE visible
23 Mar ? 06:28:32 10° WNW 06:28:58 11° WNW 06:29:36 10° NW visible
24 Mar ? 19:50:22 10° N 19:52:29 20° NE 19:53:11 18° ENE visible
25 Mar ? 20:04:20 10° NW 20:07:03 79° NE 20:08:32 24° SE visible
26 Mar ? 20:19:22 10° WNW 20:21:48 28° SW 20:23:38 14° SSE visible
27 Mar ? 20:35:44 10° WSW 20:36:43 11° SW 20:37:41 10° SSW visible
29 Mar ? 19:29:46 10° W 19:31:42 17° SW 19:33:40 10° S visible
